Wind_Speed
11 13 13 12 13 14 14 13 14 14 15 16 16 14 14 14 14 14 14 15 15 16 17 18 19 20 22 24 25 27 28 28 29 31 32 33 35 37 39 40 42 43 44 44
12 13 13 12 12 13 13 14 14 14 15 16 15 15 14 14 14 14 15 15 16 17 18 19 21 23 24 26 27 28 29 30 31 32 34 35 37 39 41 42 44 45 45 44
12 14 13 10 11 12 12 13 14 14 15 16 15 15 15 15 15 16 16 16 17 18 20 21 23 25 27 28 29 30 31 31 32 34 35 37 39 41 43 44 45 45 45 44
13 13 12 10 14 12 12 12 14 15 16 17 17 17 18 17 17 17 17 17 19 20 22 24 25 27 28 29 30 31 32 32 34 35 37 39 41 44 45 46 46 46 45 43
14 13 13 13 16 15 14 14 17 18 18 19 20 19 20 20 19 19 19 20 21 23 24 26 28 29 30 31 32 32 33 34 35 37 39 41 44 46 47 47 47 46 44 42
16 16 15 16 19 18 17 16 20 21 21 22 21 20 21 22 22 22 22 24 25 26 28 29 30 32 33 33 34 34 35 36 38 40 42 44 46 48 49 48 47 45 43 41
19 19 17 22 21 20 19 20 22 22 23 23 22 22 23 24 25 25 26 27 28 30 31 33 34 35 35 36 36 37 38 39 41 42 44 47 49 50 50 49 47 44 42 39
22 21 21 27 24 24 24 24 24 24 24 24 24 24 25 26 27 28 29 30 32 33 34 36 37 38 39 39 40 40 41 42 43 44 47 50 51 51 51 49 46 43 40 37
26 25 28 28 27 26 25 25 25 26 26 26 26 27 27 28 29 30 31 33 34 36 37 38 40 41 43 44 44 45 45 45 46 47 49 51 52 52 51 49 45 42 39 36
28 28 30 29 29 29 29 29 29 29 29 30 30 30 30 31 32 33 34 35 37 38 39 40 42 44 46 48 49 50 49 48 49 49 51 52 52 52 51 48 45 41 38 36
30 31 32 32 31 32 32 33 33 33 33 33 33 33 33 34 35 35 36 38 39 40 41 42 45 47 49 51 53 52 51 51 52 53 53 53 53 52 50 47 44 40 37 35
32 32 33 33 33 34 34 34 34 34 34 34 35 35 35 36 37 38 39 41 42 43 44 46 48 49 50 52 54 54 54 54 54 54 53 53 52 50 48 45 43 40 37 35
31 32 33 33 34 34 34 34 34 34 35 35 36 36 37 38 39 41 42 43 44 46 47 48 50 51 53 54 55 56 55 55 55 56 55 53 51 49 47 44 41 38 36 34
30 31 32 33 34 34 35 35 35 36 36 37 38 39 40 41 43 44 45 46 48 49 50 51 52 54 54 55 57 57 57 58 57 56 54 53 50 47 44 41 39 36 35 34
31 32 34 35 36 37 37 38 38 39 40 40 41 42 44 45 46 47 48 49 51 52 53 54 56 57 58 58 59 59 59 58 57 55 53 51 48 45 43 40 37 35 34 33
33 35 36 37 38 38 39 40 40 41 42 43 44 45 47 48 49 51 52 53 55 56 57 58 59 60 60 61 61 60 59 58 56 54 52 49 46 43 41 38 35 34 33 32
36 37 37 38 39 40 40 41 42 43 45 46 47 49 50 52 53 54 56 57 58 59 60 61 62 62 63 62 62 61 59 57 54 52 49 46 43 40 38 36 34 32 31 30
37 38 39 40 41 42 43 44 46 47 48 50 51 52 53 55 56 57 58 60 61 61 62 63 64 63 63 62 61 59 57 54 52 49 46 43 40 37 35 33 31 30 29 27
39 40 42 43 44 45 46 48 49 50 52 53 55 56 58 59 60 61 62 62 63 64 64 64 63 63 62 60 58 55 53 50 47 44 42 39 36 34 32 30 29 27 26 26
41 42 44 45 46 48 50 51 53 54 55 57 58 60 61 62 63 64 64 65 65 65 65 64 62 60 58 56 54 51 48 46 43 41 38 36 33 31 29 28 26 25 25 24
44 45 47 48 49 51 53 54 56 57 59 60 61 63 64 64 65 65 66 66 65 64 63 62 60 58 56 53 51 48 45 42 40 37 34 32 30 28 26 25 24 23 23 22
47 48 50 51 53 54 55 57 59 60 61 62 63 64 64 65 65 64 64 64 62 61 60 58 56 54 52 49 46 43 40 38 36 33 30 27 26 25 24 23 22 21 20 20
50 52 53 55 56 57 58 59 60 61 62 62 62 63 62 62 62 61 59 58 57 55 53 51 50 48 46 44 41 38 35 33 30 28 26 25 24 22 21 21 20 19 18 18
54 55 56 57 58 59 60 60 60 60 60 60 59 59 58 56 55 53 52 51 49 48 46 44 43 41 39 36 34 31 29 27 27 26 24 23 21 20 19 19 18 17 16 16
56 57 57 58 58 58 58 58 57 56 55 54 53 51 50 48 47 46 45 44 43 41 39 38 37 34 31 28 26 25 24 23 22 20 20 19 19 18 17 16 15 15 15 13
55 56 56 56 55 54 53 52 51 50 48 46 44 43 42 41 40 40 39 38 37 35 33 31 29 27 24 21 20 20 20 19 18 17 17 17 16 15 15 14 13 13 12 11
52 52 51 50 49 48 47 45 44 42 41 39 37 37 36 36 36 35 34 33 32 30 28 24 22 21 19 17 15 14 14 15 16 15 14 14 14 13 13 12 12 11 10 9
Wind_Direction
277 276 277 276 276 277 275 271 269 270 274 277 283 290 295 296 296 296 296 298 300 302 306 311 316 320 323 326 327 328 328 327 326 325 325 324 324 323 321 320 318 316 314 313
280 285 283 280 278 278 277 275 271 273 278 280 286 292 296 298 299 299 300 301 303 305 309 313 316 319 322 324 325 326 325 325 324 324 324 323 322 322 321 320 319 317 315 313
274 277 283 293 284 282 282 280 277 276 277 283 290 295 298 300 302 302 302 304 305 308 311 313 315 317 320 321 322 323 323 322 322 322 322 322 322 322 321 321 319 317 315 313
270 268 273 272 275 282 286 285 284 284 286 290 293 297 299 300 301 302 303 304 306 307 309 311 313 315 317 319 320 320 320 320 320 321 322 322 323 323 323 322 320 318 316 314
265 264 273 278 281 286 289 290 287 288 291 292 294 298 298 298 300 302 304 305 305 307 308 310 312 313 315 316 317 317 318 318 319 320 322 323 323 324 324 323 321 319 316 314
263 258 257 262 270 282 287 290 283 288 292 293 295 298 298 298 301 302 304 305 305 307 308 310 311 312 314 314 315 315 316 317 318 320 321 323 324 325 325 324 323 320 317 314
264 267 269 267 273 279 281 276 281 289 292 293 294 296 296 298 300 302 303 304 305 307 308 310 311 312 312 312 313 314 315 316 318 319 322 323 324 324 324 324 323 320 317 314
266 267 266 271 276 277 279 283 287 289 291 292 294 295 296 298 300 301 303 305 306 308 309 310 310 310 310 311 311 312 313 315 317 319 322 323 323 323 323 324 323 320 317 313
265 268 270 275 279 282 284 286 287 289 291 292 294 294 295 296 298 300 302 304 305 307 308 308 308 309 309 310 310 311 313 314 315 316 319 320 321 322 322 322 321 319 317 314
269 271 273 277 281 283 285 287 288 289 290 291 292 293 293 295 296 298 300 301 303 304 305 305 305 305 306 308 309 310 311 313 314 315 316 317 318 320 320 319 319 318 315 313
269 271 275 277 280 282 285 287 288 288 289 290 290 291 293 294 295 297 298 299 299 300 301 301 301 301 302 305 307 308 309 312 312 312 314 314 315 317 317 317 317 317 315 313
271 273 274 277 278 280 282 284 285 286 287 288 289 290 291 292 294 295 296 297 297 298 298 299 300 301 302 304 305 306 309 310 310 310 312 312 313 314 315 314 314 314 314 313
273 274 275 277 278 279 281 282 283 285 286 287 288 289 290 291 292 293 294 295 295 296 296 297 298 299 301 302 304 305 306 309 309 309 310 310 311 312 312 312 312 311 312 312
273 275 276 278 280 281 283 284 286 287 288 289 290 290 291 291 291 291 292 293 294 295 294 295 297 298 300 302 303 303 305 307 307 307 307 308 309 310 310 310 309 309 310 311
273 274 276 278 280 282 284 287 288 289 290 290 290 290 290 290 291 291 292 292 293 294 294 296 297 298 300 301 302 303 303 304 305 305 305 306 307 307 307 307 306 306 307 308
273 274 276 278 281 283 285 287 288 288 288 289 289 289 289 290 290 290 291 292 292 293 294 295 296 298 299 300 301 301 301 302 302 302 302 302 303 303 303 303 303 304 305 306
276 278 280 282 283 285 285 285 286 286 286 286 287 288 288 289 289 290 291 292 293 294 294 295 296 297 298 298 298 299 299 299 299 299 299 299 299 299 299 299 300 301 302 304
278 280 282 283 284 285 286 286 287 287 287 287 288 289 289 290 290 291 291 292 293 294 294 295 296 296 297 297 297 297 297 297 296 296 295 295 295 295 295 295 296 298 300 302
279 281 282 283 285 285 286 287 287 288 289 289 290 290 291 291 292 292 293 294 294 294 295 295 295 295 295 295 295 295 295 294 294 293 292 292 292 292 292 292 293 296 298 300
281 282 283 284 285 286 287 288 289 290 291 291 292 292 293 294 294 295 295 295 295 296 296 295 295 294 294 294 293 293 292 291 290 290 289 288 287 288 288 289 290 293 295 297
283 284 285 286 288 289 290 291 292 293 293 294 295 295 295 295 296 296 296 296 296 296 295 295 294 293 293 292 291 290 289 287 286 285 284 283 283 282 283 285 287 291 293 295
286 287 288 289 290 291 292 293 294 295 295 296 296 296 297 297 297 297 297 297 297 296 295 295 294 292 291 290 288 286 284 283 282 280 278 278 278 278 280 284 285 288 290 293
288 289 290 291 292 293 294 295 296 296 297 297 298 298 298 298 299 299 298 298 298 297 296 295 293 291 289 287 285 283 279 277 274 273 272 273 274 276 278 280 282 285 287 292
290 291 292 293 294 295 296 297 297 298 299 299 300 300 300 301 301 301 301 300 300 299 297 296 295 293 289 285 281 278 273 269 267 265 264 266 268 271 273 275 277 281 285 290
292 293 294 295 296 297 298 298 299 300 301 302 303 303 303 303 303 303 303 302 301 300 298 297 297 294 289 284 279 273 267 263 260 258 256 258 262 264 267 270 273 278 282 286
293 294 295 296 297 298 299 301 302 303 304 305 305 306 306 306 306 306 305 305 304 302 300 298 296 293 286 278 273 267 260 254 252 251 251 253 254 256 261 265 269 274 276 280
294 295 296 297 299 300 302 303 304 305 306 307 307 308 309 309 309 309 309 308 307 305 303 300 297 292 284 275 270 263 256 252 248 244 245 247 247 250 255 259 261 266 270 273
Height
5858 5857 5856 5855 5855 5854 5853 5853 5853 5853 5852 5850 5848 5847 5846 5844 5843 5841 5839 5837 5835 5833 5831 5828 5825 5822 5818 5814 5810 5806 5802 5797 5793 5788 5783 5778 5773 5767 5762 5755 5749 5743 5736 5730
5854 5853 5852 5851 5851 5850 5849 5849 5848 5848 5848 5846 5844 5843 5842 5840 5838 5836 5834 5832 5830 5828 5825 5823 5819 5816 5812 5808 5804 5800 5795 5791 5786 5781 5776 5771 5765 5759 5753 5746 5739 5732 5726 5719
5850 5851 5849 5849 5848 5847 5846 5845 5845 5844 5844 5841 5840 5839 5837 5836 5834 5832 5830 5827 5825 5822 5820 5817 5814 5810 5806 5802 5798 5793 5789 5784 5780 5774 5769 5763 5757 5750 5744 5737 5730 5722 5715 5708
5846 5847 5846 5848 5844 5843 5843 5842 5840 5839 5838 5837 5836 5834 5832 5830 5829 5826 5824 5822 5819 5817 5814 5811 5807 5803 5799 5795 5791 5787 5782 5777 5772 5767 5761 5755 5748 5741 5734 5727 5719 5711 5704 5697
5842 5843 5843 5844 5840 5839 5839 5838 5836 5835 5834 5832 5830 5829 5827 5825 5823 5821 5818 5816 5814 5811 5808 5804 5801 5797 5793 5788 5784 5779 5775 5770 5764 5759 5752 5746 5739 5731 5724 5716 5708 5701 5693 5686
5837 5837 5839 5840 5836 5835 5836 5834 5832 5830 5829 5827 5825 5825 5823 5819 5817 5814 5812 5810 5807 5804 5801 5797 5793 5789 5785 5780 5776 5771 5766 5761 5756 5750 5743 5736 5729 5721 5713 5705 5697 5690 5682 5676
5832 5832 5833 5831 5830 5831 5832 5830 5827 5825 5823 5822 5820 5818 5816 5813 5810 5808 5805 5803 5800 5797 5793 5789 5785 5781 5776 5772 5767 5762 5757 5752 5746 5740 5733 5726 5719 5711 5703 5695 5687 5680 5673 5666
5826 5827 5829 5823 5824 5824 5824 5823 5821 5819 5817 5815 5813 5811 5808 5806 5803 5800 5798 5795 5792 5788 5784 5780 5776 5772 5767 5763 5758 5753 5748 5742 5736 5729 5723 5716 5708 5700 5692 5685 5677 5670 5663 5656
5821 5822 5818 5817 5817 5816 5816 5815 5813 5811 5809 5807 5805 5803 5801 5798 5795 5792 5789 5786 5783 5779 5775 5771 5767 5762 5757 5752 5747 5743 5737 5732 5725 5719 5712 5705 5697 5690 5682 5674 5667 5660 5653 5647
5812 5812 5810 5810 5809 5808 5807 5806 5804 5803 5801 5799 5797 5795 5792 5790 5787 5784 5781 5777 5774 5770 5766 5761 5757 5752 5747 5742 5736 5731 5726 5720 5714 5708 5701 5694 5687 5679 5671 5664 5657 5651 5644 5638
5804 5804 5803 5801 5801 5800 5798 5797 5795 5793 5792 5790 5788 5785 5783 5780 5777 5774 5771 5767 5764 5760 5756 5751 5747 5742 5736 5731 5725 5720 5714 5708 5702 5696 5690 5682 5675 5668 5660 5654 5647 5641 5635 5629
5796 5795 5794 5793 5792 5791 5789 5787 5786 5784 5782 5780 5777 5775 5772 5769 5766 5763 5760 5757 5753 5749 5745 5740 5735 5730 5725 5719 5714 5708 5702 5697 5691 5684 5678 5671 5663 5656 5650 5644 5637 5631 5626 5620
5786 5785 5784 5783 5782 5781 5779 5777 5776 5774 5772 5769 5767 5764 5761 5758 5755 5752 5748 5745 5741 5737 5733 5728 5723 5718 5713 5707 5702 5696 5690 5684 5678 5672 5665 5658 5651 5645 5639 5632 5627 5621 5616 5611
5777 5776 5774 5773 5772 5770 5768 5767 5765 5763 5760 5758 5755 5752 5749 5746 5743 5739 5736 5732 5728 5724 5720 5715 5710 5705 5700 5694 5689 5683 5677 5671 5665 5658 5652 5646 5639 5633 5627 5622 5616 5611 5606 5602
5768 5766 5764 5763 5761 5759 5757 5755 5753 5751 5748 5745 5742 5739 5736 5733 5729 5726 5722 5718 5714 5710 5705 5701 5696 5691 5685 5680 5674 5669 5663 5657 5651 5645 5639 5633 5627 5622 5617 5612 5607 5602 5597 5593
5757 5756 5754 5752 5751 5749 5746 5744 5742 5739 5736 5733 5730 5726 5723 5719 5716 5712 5708 5704 5700 5696 5691 5686 5681 5675 5670 5664 5659 5653 5648 5642 5636 5630 5625 5620 5615 5610 5606 5602 5597 5593 5589 5584
5746 5745 5743 5741 5739 5737 5735 5732 5729 5726 5723 5720 5716 5713 5709 5706 5702 5698 5693 5689 5684 5679 5674 5669 5664 5659 5653 5648 5642 5636 5631 5626 5621 5616 5611 5607 5603 5599 5595 5591 5587 5584 5580 5576
5735 5733 5731 5729 5727 5725 5722 5719 5716 5713 5709 5706 5702 5699 5695 5691 5686 5682 5678 5673 5668 5662 5657 5651 5646 5641 5635 5630 5624 5619 5614 5610 5605 5601 5597 5594 5590 5587 5584 5581 5578 5575 5571 5568
5724 5722 5720 5717 5715 5712 5709 5706 5702 5699 5695 5691 5687 5683 5678 5674 5669 5664 5659 5654 5649 5644 5639 5633 5627 5622 5616 5611 5606 5602 5598 5594 5590 5587 5584 5581 5578 5576 5574 5571 5568 5566 5563 5560
5712 5710 5707 5704 5701 5698 5695 5691 5688 5684 5679 5675 5670 5665 5660 5655 5650 5645 5639 5634 5628 5622 5618 5612 5607 5602 5597 5593 5588 5585 5581 5578 5575 5573 5571 5569 5567 5565 5563 5561 5559 5557 5555 5552
5699 5697 5694 5691 5687 5684 5680 5676 5671 5667 5662 5657 5652 5646 5641 5636 5630 5624 5619 5614 5608 5602 5597 5591 5586 5582 5578 5574 5571 5568 5566 5563 5561 5560 5559 5557 5556 5555 5554 5552 5551 5549 5547 5545
5685 5682 5679 5675 5672 5668 5664 5659 5654 5649 5644 5639 5633 5627 5621 5616 5610 5604 5598 5592 5587 5581 5576 5572 5567 5562 5559 5556 5554 5552 5550 5549 5548 5547 5547 5547 5546 5545 5545 5544 5543 5542 5540 5538
5670 5667 5663 5659 5655 5651 5647 5642 5636 5631 5625 5620 5614 5608 5602 5596 5590 5584 5579 5573 5567 5561 5557 5552 5548 5544 5541 5539 5538 5536 5536 5535 5535 5536 5537 5537 5537 5537 5537 5536 5535 5534 5533 5531
5654 5650 5647 5642 5638 5634 5629 5624 5618 5613 5607 5601 5595 5589 5583 5578 5572 5566 5560 5555 5550 5544 5540 5536 5532 5528 5525 5524 5523 5522 5523 5523 5524 5525 5526 5528 5528 5529 5529 5529 5528 5528 5527 5525
5638 5634 5630 5625 5621 5616 5611 5606 5601 5595 5590 5584 5578 5572 5566 5561 5556 5551 5545 5540 5535 5530 5526 5522 5518 5515 5513 5511 5511 5511 5512 5513 5514 5516 5518 5519 5520 5521 5522 5522 5522 5522 5521 5520
5621 5617 5613 5608 5604 5599 5594 5590 5585 5580 5575 5570 5565 5559 5554 5548 5543 5538 5533 5527 5522 5518 5514 5510 5507 5504 5502 5501 5501 5502 5503 5504 5506 5508 5510 5512 5513 5515 5516 5516 5516 5516 5516 5515
5605 5601 5597 5593 5588 5584 5580 5575 5571 5567 5562 5557 5553 5548 5543 5538 5533 5527 5522 5517 5512 5508 5504 5501 5498 5496 5495 5494 5495 5496 5497 5498 5500 5502 5504 5506 5508 5509 5510 5511 5511 5512 5512 5511